����,���ϕ���(m/s),���ϕ���,�ő�u�ԕ���(m/s),�ő啗��������,�C��(��),���x(%),10���Ԉړ��ώZ�J��(mm),1���Ԉړ��ώZ�J��(mm),���J��(mm),�݌v�J��(mm),����(���ώZ)(MJ/m2),����(���ώZ)(min),���n�C��(hPa),�C�ʋC��(hPa)
2022-10-24T00:00:00+09:00,2.9,�k�k��,6.6,�k,13.9,86.3,0,0,0,0,15.09,429,1001.5,1015.4
2022-10-24T00:01:00+09:00,3,�k�k��,6.6,�k,14,86.4,0,0,0,0,0,0,1001.5,1015.4
2022-10-24T00:02:00+09:00,3,�k�k��,5.9,�k��,14,86.9,0,0,0,0,0,0,1001.4,1015.3
2022-10-24T00:03:00+09:00,3,�k,6.5,�k,14,86.9,0,0,0,0,0,0,1001.4,1015.3
2022-10-24T00:04:00+09:00,3,�k�k��,6.5,�k,13.9,86.6,0,0,0,0,0,0,1001.4,1015.3
2022-10-24T00:05:00+09:00,2.9,�k�k��,6.5,�k,13.9,86.4,0,0,0,0,0,0,1001.4,1015.3
2022-10-24T00:06:00+09:00,2.9,�k,6.5,�k,13.9,86.4,0,0,0,0,0,0,1001.4,1015.3
2022-10-24T00:07:00+09:00,2.7,�k,6.5,�k,14,86.8,0,0,0,0,0,0,1001.4,1015.3
2022-10-24T00:08:00+09:00,2.8,�k,6.5,�k,13.9,86.6,0,0,0,0,0,0,1001.4,1015.3
2022-10-24T00:09:00+09:00,2.8,�k,6.5,�k,13.9,86.9,0,0,0,0,0,0,1001.4,1015.3
2022-10-24T00:10:00+09:00,2.8,�k,6.5,�k,13.9,86.6,0,0,0,0,0,0,1001.4,1015.3
2022-10-24T00:11:00+09:00,2.7,�k,6.5,�k,13.8,86.5,0,0,0,0,0,0,1001.4,1015.3
2022-10-24T00:12:00+09:00,2.6,�k,6.5,�k,13.8,86.6,0,0,0,0,0,0,1001.4,1015.3
2022-10-24T00:13:00+09:00,2.5,�k,7.3,�k,13.9,86.7,0,0,0,0,0,0,1001.4,1015.3
2022-10-24T00:14:00+09:00,2.6,�k,7.4,�k�k��,14,86.6,0,0,0,0,0,0,1001.4,1015.3
2022-10-24T00:15:00+09:00,2.7,�k,7.4,�k�k��,13.9,86.4,0,0,0,0,0,0,1001.5,1015.4
2022-10-24T00:16:00+09:00,2.7,�k,7.4,�k�k��,13.9,86.3,0,0,0,0,0,0,1001.4,1015.3
2022-10-24T00:17:00+09:00,2.7,�k,7.4,�k�k��,13.8,86.3,0,0,0,0,0,0,1001.5,1015.4
2022-10-24T00:18:00+09:00,2.7,�k,7.4,�k�k��,13.8,86.1,0,0,0,0,0,0,1001.5,1015.4
2022-10-24T00:19:00+09:00,2.8,�k,7.4,�k�k��,13.7,86.2,0,0,0,0,0,0,1001.5,1015.4
2022-10-24T00:20:00+09:00,2.8,�k�k��,7.4,�k�k��,13.7,86.3,0,0,0,0,0,0,1001.5,1015.4
2022-10-24T00:21:00+09:00,2.9,�k�k��,7.4,�k�k��,13.6,86.4,0,0,0,0,0,0,1001.5,1015.4
2022-10-24T00:22:00+09:00,3,�k�k��,7.4,�k�k��,13.7,86.7,0,0,0,0,0,0,1001.5,1015.4
2022-10-24T00:23:00+09:00,3.2,�k�k��,7.4,�k�k��,13.7,86.8,0,0,0,0,0,0,1001.4,1015.3
2022-10-24T00:24:00+09:00,3.1,�k�k��,7,�k��,13.6,86.8,0,0,0,0,0,0,1001.5,1015.4
2022-10-24T00:25:00+09:00,3.3,�k�k��,7,�k��,13.6,86.7,0,0,0,0,0,0,1001.5,1015.4
2022-10-24T00:26:00+09:00,3.4,�k�k��,7,�k��,13.6,86.6,0,0,0,0,0,0,1001.5,1015.4
2022-10-24T00:27:00+09:00,3.3,�k�k��,7,�k��,13.7,86.9,0,0,0,0,0,0,1001.5,1015.4
2022-10-24T00:28:00+09:00,3.3,�k�k��,7,�k��,13.7,86.7,0,0,0,0,0,0,1001.5,1015.4
2022-10-24T00:29:00+09:00,3.4,�k�k��,7,�k��,13.6,86.4,0,0,0,0,0,0,1001.5,1015.4
2022-10-24T00:30:00+09:00,3.5,�k�k��,7,�k��,13.7,86.1,0,0,0,0,0,0,1001.5,1015.4
2022-10-24T00:31:00+09:00,3.5,�k�k��,7.2,�k��,13.7,85.5,0,0,0,0,0,0,1001.5,1015.4
2022-10-24T00:32:00+09:00,3.5,�k�k��,7.2,�k��,13.7,85.1,0,0,0,0,0,0,1001.4,1015.3
2022-10-24T00:33:00+09:00,3.7,�k�k��,7.2,�k��,13.7,84.8,0,0,0,0,0,0,1001.5,1015.4
2022-10-24T00:34:00+09:00,3.6,�k�k��,7.2,�k��,13.8,84.4,0,0,0,0,0,0,1001.5,1015.4
2022-10-24T00:35:00+09:00,3.7,�k�k��,8.1,�k,13.7,84.2,0,0,0,0,0,0,1001.4,1015.3
2022-10-24T00:36:00+09:00,3.9,�k�k��,8.1,�k,13.7,83.2,0,0,0,0,0,0,1001.4,1015.3
2022-10-24T00:37:00+09:00,3.9,�k�k��,8.1,�k,13.8,82.7,0,0,0,0,0,0,1001.4,1015.3
2022-10-24T00:38:00+09:00,4.1,�k�k��,8.1,�k,13.7,82.4,0,0,0,0,0,0,1001.4,1015.3
2022-10-24T00:39:00+09:00,4.1,�k�k��,8.1,�k,13.7,81.8,0,0,0,0,0,0,1001.4,1015.3
2022-10-24T00:40:00+09:00,4,�k�k��,8.1,�k,13.7,81.7,0,0,0,0,0,0,1001.4,1015.3
2022-10-24T00:41:00+09:00,3.9,�k�k��,8.1,�k,13.7,81.7,0,0,0,0,0,0,1001.5,1015.4
2022-10-24T00:42:00+09:00,3.8,�k�k��,8.1,�k,13.7,82.1,0,0,0,0,0,0,1001.4,1015.3
2022-10-24T00:43:00+09:00,3.7,�k�k��,8.1,�k,13.7,82.2,0,0,0,0,0,0,1001.4,1015.3
2022-10-24T00:44:00+09:00,3.8,�k�k��,8.1,�k,13.6,81.8,0,0,0,0,0,0,1001.4,1015.3
2022-10-24T00:45:00+09:00,3.6,�k,7.5,�k��,13.7,81.7,0,0,0,0,0,0,1001.4,1015.3
2022-10-24T00:46:00+09:00,3.5,�k,7.4,�k�k��,13.6,81.5,0,0,0,0,0,0,1001.4,1015.3
2022-10-24T00:47:00+09:00,3.5,�k,7.4,�k�k��,13.7,81,0,0,0,0,0,0,1001.4,1015.3
2022-10-24T00:48:00+09:00,3.4,�k,7.4,�k�k��,13.7,80.8,0,0,0,0,0,0,1001.4,1015.3
2022-10-24T00:49:00+09:00,3.4,�k,7.4,�k�k��,13.7,80.5,0,0,0,0,0,0,1001.5,1015.4
2022-10-24T00:50:00+09:00,3.5,�k�k��,7.4,�k�k��,13.7,80.2,0,0,0,0,0,0,1001.5,1015.4
2022-10-24T00:51:00+09:00,3.8,�k�k��,8.2,���k��,13.7,79.7,0,0,0,0,0,0,1001.5,1015.4
2022-10-24T00:52:00+09:00,4,�k�k��,8.2,���k��,13.7,79.4,0,0,0,0,0,0,1001.5,1015.4
2022-10-24T00:53:00+09:00,4,�k�k��,8.2,���k��,13.7,78.8,0,0,0,0,0,0,1001.6,1015.5
2022-10-24T00:54:00+09:00,3.8,�k�k��,8.2,���k��,13.7,78.6,0,0,0,0,0,0,1001.6,1015.5
2022-10-24T00:55:00+09:00,3.8,�k�k��,8.2,���k��,13.7,78.7,0,0,0,0,0,0,1001.6,1015.5
2022-10-24T00:56:00+09:00,3.6,�k�k��,8.2,���k��,13.7,78.6,0,0,0,0,0,0,1001.6,1015.5
2022-10-24T00:57:00+09:00,3.6,�k�k��,8.2,���k��,13.7,78.9,0,0,0,0,0,0,1001.6,1015.5
2022-10-24T00:58:00+09:00,3.5,�k�k��,8.2,���k��,13.7,79.3,0,0,0,0,0,0,1001.5,1015.4
2022-10-24T00:59:00+09:00,3.5,�k�k��,8.2,���k��,13.7,79.1,0,0,0,0,0,0,1001.6,1015.5
2022-10-24T01:00:00+09:00,3.3,�k�k��,8.2,���k��,13.6,79.1,0,0,0,0,0,0,1001.6,1015.5
2022-10-24T01:01:00+09:00,3.1,�k�k��,6.8,�k�k��,13.7,79.3,0,0,0,0,0,0,1001.5,1015.4
2022-10-24T01:02:00+09:00,3,�k�k��,6.8,�k�k��,13.6,79.2,0,0,0,0,0,0,1001.6,1015.5
2022-10-24T01:03:00+09:00,2.8,�k�k��,6.8,�k�k��,13.6,79.3,0,0,0,0,0,0,1001.6,1015.5
2022-10-24T01:04:00+09:00,2.8,�k�k��,6.8,�k�k��,13.6,79.3,0,0,0,0,0,0,1001.6,1015.5
2022-10-24T01:05:00+09:00,2.8,�k�k��,6.8,�k�k��,13.6,79.8,0,0,0,0,0,0,1001.5,1015.4
2022-10-24T01:06:00+09:00,2.8,�k�k��,6.8,�k�k��,13.6,80,0,0,0,0,0,0,1001.5,1015.4
2022-10-24T01:07:00+09:00,2.9,�k�k��,6.8,�k�k��,13.6,80.2,0,0,0,0,0,0,1001.5,1015.4
2022-10-24T01:08:00+09:00,3,�k,6.8,�k�k��,13.6,80,0,0,0,0,0,0,1001.5,1015.4
2022-10-24T01:09:00+09:00,2.8,�k,6.8,�k�k��,13.6,80.5,0,0,0,0,0,0,1001.5,1015.4
2022-10-24T01:10:00+09:00,2.8,�k,6.8,�k�k��,13.6,80.6,0,0,0,0,0,0,1001.5,1015.4
2022-10-24T01:11:00+09:00,2.8,�k,6.4,�k�k��,13.6,80.6,0,0,0,0,0,0,1001.5,1015.4
2022-10-24T01:12:00+09:00,2.7,�k�k��,6.3,�k�k��,13.5,80.6,0,0,0,0,0,0,1001.5,1015.4
2022-10-24T01:13:00+09:00,2.7,�k�k��,6.3,�k�k��,13.4,80.9,0,0,0,0,0,0,1001.5,1015.4
2022-10-24T01:14:00+09:00,2.6,�k,6.3,�k�k��,13.4,81.2,0,0,0,0,0,0,1001.5,1015.4
2022-10-24T01:15:00+09:00,2.5,�k,6.3,�k�k��,13.4,81.9,0,0,0,0,0,0,1001.5,1015.4
2022-10-24T01:16:00+09:00,2.3,�k,6,�k,13.3,82,0,0,0,0,0,0,1001.5,1015.4
2022-10-24T01:17:00+09:00,2.2,�k�k��,6,�k,13.4,82.6,0,0,0,0,0,0,1001.5,1015.4
2022-10-24T01:18:00+09:00,2.2,�k�k��,6,�k,13.4,83,0,0,0,0,0,0,1001.5,1015.4
2022-10-24T01:19:00+09:00,2.2,�k�k��,6,�k,13.4,83.1,0,0,0,0,0,0,1001.5,1015.4
2022-10-24T01:20:00+09:00,2.3,�k�k��,6,�k,13.4,82.6,0,0,0,0,0,0,1001.5,1015.4
2022-10-24T01:21:00+09:00,2.2,�k,5.8,�k,13.5,82.2,0,0,0,0,0,0,1001.5,1015.4
2022-10-24T01:22:00+09:00,2.3,�k,7,�k,13.5,82.2,0,0,0,0,0,0,1001.5,1015.4
2022-10-24T01:23:00+09:00,2.4,�k,7,�k,13.5,82,0,0,0,0,0,0,1001.5,1015.4
2022-10-24T01:24:00+09:00,2.5,�k,7,�k,13.4,81.6,0,0,0,0,0,0,1001.5,1015.4
2022-10-24T01:25:00+09:00,2.7,�k,7,�k,13.5,81.9,0,0,0,0,0,0,1001.5,1015.4
2022-10-24T01:26:00+09:00,3,�k,7,�k,13.6,82.2,0,0,0,0,0,0,1001.5,1015.4
2022-10-24T01:27:00+09:00,3,�k,7,�k,13.6,82.7,0,0,0,0,0,0,1001.4,1015.3
2022-10-24T01:28:00+09:00,3,�k,7,�k,13.5,82,0,0,0,0,0,0,1001.4,1015.3
2022-10-24T01:29:00+09:00,3.1,�k,7,�k,13.4,81.7,0,0,0,0,0,0,1001.4,1015.3
2022-10-24T01:30:00+09:00,3.2,�k�k��,7,�k,13.6,82.6,0,0,0,0,0,0,1001.4,1015.3
2022-10-24T01:31:00+09:00,3.3,�k�k��,7,�k,13.7,82.5,0,0,0,0,0,0,1001.4,1015.3
2022-10-24T01:32:00+09:00,3.3,�k�k��,5.7,�k,13.5,82.1,0,0,0,0,0,0,1001.4,1015.3
2022-10-24T01:33:00+09:00,3.4,�k�k��,5.7,�k,13.5,81.7,0,0,0,0,0,0,1001.4,1015.3
2022-10-24T01:34:00+09:00,3.4,�k�k��,5.7,�k,13.3,82,0,0,0,0,0,0,1001.4,1015.3
2022-10-24T01:35:00+09:00,3.4,�k�k��,6,�k�k��,13.3,82,0,0,0,0,0,0,1001.5,1015.4
2022-10-24T01:36:00+09:00,3.4,�k�k��,6,�k�k��,13.3,82.2,0,0,0,0,0,0,1001.5,1015.4
2022-10-24T01:37:00+09:00,3.4,�k�k��,6,�k�k��,13.4,82.5,0,0,0,0,0,0,1001.5,1015.4
2022-10-24T01:38:00+09:00,3.5,�k�k��,6.4,�k�k��,13.4,82.4,0,0,0,0,0,0,1001.5,1015.4
2022-10-24T01:39:00+09:00,3.6,�k�k��,6.6,�k,13.6,82.8,0,0,0,0,0,0,1001.5,1015.4
2022-10-24T01:40:00+09:00,3.6,�k�k��,6.9,�k�k��,13.7,82.7,0,0,0,0,0,0,1001.5,1015.4
2022-10-24T01:41:00+09:00,3.7,�k�k��,7.1,�k�k��,13.7,82,0,0,0,0,0,0,1001.5,1015.4
2022-10-24T01:42:00+09:00,3.7,�k�k��,7.1,�k�k��,13.7,81,0,0,0,0,0,0,1001.5,1015.4
2022-10-24T01:43:00+09:00,3.6,�k,7.1,�k�k��,13.5,80.5,0,0,0,0,0,0,1001.5,1015.4
2022-10-24T01:44:00+09:00,3.6,�k,7.1,�k�k��,13.4,80.1,0,0,0,0,0,0,1001.5,1015.4
2022-10-24T01:45:00+09:00,3.5,�k,7.1,�k�k��,13.4,80.6,0,0,0,0,0,0,1001.5,1015.4
2022-10-24T01:46:00+09:00,3.6,�k,7.5,�k�k��,13.4,81.1,0,0,0,0,0,0,1001.5,1015.4
2022-10-24T01:47:00+09:00,3.7,�k,7.5,�k�k��,13.5,81.7,0,0,0,0,0,0,1001.5,1015.4
2022-10-24T01:48:00+09:00,3.5,�k�k��,7.5,�k�k��,13.6,81.9,0,0,0,0,0,0,1001.6,1015.5
2022-10-24T01:49:00+09:00,3.3,�k,7.5,�k�k��,13.5,81.1,0,0,0,0,0,0,1001.6,1015.5
2022-10-24T01:50:00+09:00,3.1,�k,7.5,�k�k��,13.5,80.8,0,0,0,0,0,0,1001.6,1015.5
2022-10-24T01:51:00+09:00,3,�k,8,�k,13.5,80.6,0,0,0,0,0,0,1001.6,1015.5
2022-10-24T01:52:00+09:00,3,�k,8,�k,13.5,80.6,0,0,0,0,0,0,1001.6,1015.5
2022-10-24T01:53:00+09:00,3.2,�k,8,�k,13.5,80.6,0,0,0,0,0,0,1001.6,1015.5
2022-10-24T01:54:00+09:00,3.2,�k,8,�k,13.6,80.6,0,0,0,0,0,0,1001.6,1015.5
2022-10-24T01:55:00+09:00,3.3,�k,8,�k,13.7,80.6,0,0,0,0,0,0,1001.6,1015.5
2022-10-24T01:56:00+09:00,3.3,�k,8,�k,13.6,79.9,0,0,0,0,0,0,1001.6,1015.5
2022-10-24T01:57:00+09:00,3.3,�k,8,�k,13.7,79.8,0,0,0,0,0,0,1001.7,1015.6
2022-10-24T01:58:00+09:00,3.3,�k,8,�k,13.5,79.1,0,0,0,0,0,0,1001.6,1015.5
2022-10-24T01:59:00+09:00,3.2,�k,8,�k,13.4,79,0,0,0,0,0,0,1001.6,1015.5
2022-10-24T02:00:00+09:00,3.3,�k,8,�k,13.4,79.5,0,0,0,0,0,0,1001.6,1015.5
2022-10-24T02:01:00+09:00,3.3,�k,7.3,�k�k��,13.7,80.6,0,0,0,0,0,0,1001.6,1015.5
2022-10-24T02:02:00+09:00,3.3,�k,7.3,�k�k��,13.7,80.8,0,0,0,0,0,0,1001.6,1015.5
2022-10-24T02:03:00+09:00,3.2,�k,7.3,�k�k��,13.6,80.2,0,0,0,0,0,0,1001.6,1015.5
2022-10-24T02:04:00+09:00,3.4,�k,7.2,�k,13.7,80,0,0,0,0,0,0,1001.6,1015.5
2022-10-24T02:05:00+09:00,3.4,�k,7.1,�k��,13.6,80,0,0,0,0,0,0,1001.6,1015.5
2022-10-24T02:06:00+09:00,3.2,�k,7.1,�k��,13.6,79.3,0,0,0,0,0,0,1001.6,1015.5
2022-10-24T02:07:00+09:00,3.1,�k,7,�k,13.5,79.3,0,0,0,0,0,0,1001.6,1015.5
2022-10-24T02:08:00+09:00,3.1,�k,7,�k,13.5,79.3,0,0,0,0,0,0,1001.6,1015.5
2022-10-24T02:09:00+09:00,3.2,�k,7,�k,13.7,80.3,0,0,0,0,0,0,1001.7,1015.6
2022-10-24T02:10:00+09:00,3.1,�k,7,�k,13.5,80.2,0,0,0,0,0,0,1001.6,1015.5
2022-10-24T02:11:00+09:00,2.9,�k,7,�k,13.4,79.9,0,0,0,0,0,0,1001.6,1015.5
2022-10-24T02:12:00+09:00,2.9,�k,7,�k,13.4,80.3,0,0,0,0,0,0,1001.6,1015.5
2022-10-24T02:13:00+09:00,2.9,�k,7,�k,13.3,80.3,0,0,0,0,0,0,1001.6,1015.5
2022-10-24T02:14:00+09:00,2.7,�k,7,�k,13.4,80.7,0,0,0,0,0,0,1001.6,1015.5
2022-10-24T02:15:00+09:00,2.6,�k,7,�k,13.4,81,0,0,0,0,0,0,1001.6,1015.5
2022-10-24T02:16:00+09:00,2.7,�k,6.8,�k�k��,13.4,81,0,0,0,0,0,0,1001.6,1015.5
2022-10-24T02:17:00+09:00,2.6,�k,6.8,�k�k��,13.4,81.2,0,0,0,0,0,0,1001.6,1015.5
2022-10-24T02:18:00+09:00,2.7,�k,6.8,�k�k��,13.3,80.9,0,0,0,0,0,0,1001.6,1015.5
2022-10-24T02:19:00+09:00,2.9,�k,6.8,�k�k��,13.4,80.9,0,0,0,0,0,0,1001.6,1015.5
2022-10-24T02:20:00+09:00,3.1,�k,6.8,�k�k��,13.4,80.8,0,0,0,0,0,0,1001.6,1015.5
2022-10-24T02:21:00+09:00,3.1,�k,6.8,�k�k��,13.4,80.6,0,0,0,0,0,0,1001.7,1015.6
2022-10-24T02:22:00+09:00,2.9,�k,6.4,�k�k��,13.4,80.4,0,0,0,0,0,0,1001.7,1015.6
2022-10-24T02:23:00+09:00,2.9,�k,6.4,�k�k��,13.4,80.2,0,0,0,0,0,0,1001.7,1015.6
2022-10-24T02:24:00+09:00,2.8,�k,6.4,�k�k��,13.3,80.2,0,0,0,0,0,0,1001.7,1015.6
2022-10-24T02:25:00+09:00,2.8,�k,6.4,�k�k��,13.3,80.3,0,0,0,0,0,0,1001.8,1015.7
2022-10-24T02:26:00+09:00,2.8,�k,6.4,�k�k��,13.3,80.4,0,0,0,0,0,0,1001.7,1015.6
2022-10-24T02:27:00+09:00,2.9,�k,6.4,�k�k��,13.3,80.3,0,0,0,0,0,0,1001.8,1015.7
2022-10-24T02:28:00+09:00,2.7,�k�k��,6.4,�k�k��,13.3,80.4,0,0,0,0,0,0,1001.8,1015.7
2022-10-24T02:29:00+09:00,2.6,�k�k��,5.8,�k,13.3,80.3,0,0,0,0,0,0,1001.8,1015.7
2022-10-24T02:30:00+09:00,2.4,�k�k��,5.6,�k�k��,13.3,80.5,0,0,0,0,0,0,1001.8,1015.7
2022-10-24T02:31:00+09:00,2.5,�k�k��,5.6,�k�k��,13.3,81,0,0,0,0,0,0,1001.7,1015.6
2022-10-24T02:32:00+09:00,2.6,�k,6.1,�k,13.3,81.5,0,0,0,0,0,0,1001.7,1015.6
2022-10-24T02:33:00+09:00,2.6,�k,6.1,�k,13.3,81.8,0,0,0,0,0,0,1001.7,1015.6
2022-10-24T02:34:00+09:00,2.7,�k,6.1,�k,13.2,81.7,0,0,0,0,0,0,1001.8,1015.7
2022-10-24T02:35:00+09:00,2.7,�k,6.1,�k,13.3,81.9,0,0,0,0,0,0,1001.7,1015.6
2022-10-24T02:36:00+09:00,2.8,�k,6.1,�k,13.3,82.3,0,0,0,0,0,0,1001.7,1015.6
2022-10-24T02:37:00+09:00,2.9,�k,6.4,�k�k��,13.3,82.4,0,0,0,0,0,0,1001.7,1015.6
2022-10-24T02:38:00+09:00,3,�k,6.4,�k�k��,13.4,83.2,0,0,0,0,0,0,1001.7,1015.6
2022-10-24T02:39:00+09:00,3,�k,6.4,�k�k��,13.3,82.8,0,0,0,0,0,0,1001.7,1015.6
2022-10-24T02:40:00+09:00,3.2,�k,6.4,�k�k��,13.2,82.5,0,0,0,0,0,0,1001.7,1015.6
2022-10-24T02:41:00+09:00,3.2,�k,6.4,�k�k��,13.2,82.9,0,0,0,0,0,0,1001.7,1015.6
2022-10-24T02:42:00+09:00,3.1,�k,6.4,�k�k��,13.1,82.7,0,0,0,0,0,0,1001.7,1015.6
2022-10-24T02:43:00+09:00,3.2,�k,6.4,�k�k��,13.1,83.2,0,0,0,0,0,0,1001.7,1015.6
2022-10-24T02:44:00+09:00,3.3,�k,6.4,�k�k��,13.2,83.6,0,0,0,0,0,0,1001.7,1015.6
2022-10-24T02:45:00+09:00,3.2,�k,6.4,�k�k��,13.2,84.5,0,0,0,0,0,0,1001.8,1015.7
2022-10-24T02:46:00+09:00,3.1,�k,6.4,�k�k��,13.1,84.2,0,0,0,0,0,0,1001.8,1015.7
2022-10-24T02:47:00+09:00,2.9,�k,6.4,�k�k��,13.1,83.9,0,0,0,0,0,0,1001.8,1015.7
2022-10-24T02:48:00+09:00,2.9,�k,6.4,�k�k��,13.1,83.9,0,0,0,0,0,0,1001.8,1015.7
2022-10-24T02:49:00+09:00,2.9,�k,6.7,�k�k��,13.1,84.3,0,0,0,0,0,0,1001.8,1015.7
2022-10-24T02:50:00+09:00,2.9,�k,6.7,�k�k��,13,84,0,0,0,0,0,0,1001.9,1015.8
2022-10-24T02:51:00+09:00,2.9,�k,6.7,�k�k��,13.1,84.5,0,0,0,0,0,0,1001.9,1015.8
2022-10-24T02:52:00+09:00,3,�k,6.7,�k�k��,13.1,84.2,0,0,0,0,0,0,1001.9,1015.8
2022-10-24T02:53:00+09:00,2.9,�k,6.7,�k�k��,13.1,83.9,0,0,0,0,0,0,1001.8,1015.7
2022-10-24T02:54:00+09:00,2.9,�k,6.7,�k�k��,13,83.6,0,0,0,0,0,0,1001.8,1015.7
2022-10-24T02:55:00+09:00,3,�k,6.7,�k�k��,13.1,83.4,0,0,0,0,0,0,1001.9,1015.8
2022-10-24T02:56:00+09:00,3,�k,6.7,�k�k��,13,83.2,0,0,0,0,0,0,1001.9,1015.8
2022-10-24T02:57:00+09:00,2.9,�k,6.7,�k�k��,13,83.3,0,0,0,0,0,0,1001.8,1015.7
2022-10-24T02:58:00+09:00,2.8,�k,6.7,�k�k��,13,83.5,0,0,0,0,0,0,1001.8,1015.7
2022-10-24T02:59:00+09:00,2.8,�k�k��,6.2,�k,13,83.6,0,0,0,0,0,0,1001.8,1015.7
2022-10-24T03:00:00+09:00,2.7,�k�k��,5.8,�k�k��,13,83.4,0,0,0,0,0,0,1001.7,1015.6
2022-10-24T03:01:00+09:00,2.7,�k�k��,5.8,�k�k��,13,83.3,0,0,0,0,0,0,1001.8,1015.7
2022-10-24T03:02:00+09:00,2.5,�k�k��,5.8,�k�k��,13,83,0,0,0,0,0,0,1001.7,1015.6
2022-10-24T03:03:00+09:00,,,,,,,,,,,,,,
2022-10-24T03:04:00+09:00,2.3,�k�k��,5.8,�k�k��,13.2,83.9,0,0,0,0,0,0,1001.7,1015.6
2022-10-24T03:05:00+09:00,2.3,�k,5.4,�k�k��,13.1,83.9,0,0,0,0,0,0,1001.7,1015.6
2022-10-24T03:06:00+09:00,2.2,�k,5.4,�k�k��,13,83.5,0,0,0,0,0,0,1001.7,1015.6
2022-10-24T03:07:00+09:00,2.2,�k,5.4,�k�k��,13,83.4,0,0,0,0,0,0,1001.7,1015.6
2022-10-24T03:08:00+09:00,2.4,�k,5.4,�k�k��,13,83.6,0,0,0,0,0,0,1001.7,1015.6
2022-10-24T03:09:00+09:00,2.2,�k,5,�k�k��,13,83.5,0,0,0,0,0,0,1001.6,1015.5
2022-10-24T03:10:00+09:00,2.2,�k,5,�k�k��,12.8,83.4,0,0,0,0,0,0,1001.6,1015.5
2022-10-24T03:11:00+09:00,2.2,�k�k��,5,�k�k��,12.9,83.7,0,0,0,0,0,0,1001.6,1015.5
2022-10-24T03:12:00+09:00,2.2,�k�k��,5,�k�k��,12.9,83.8,0,0,0,0,0,0,1001.6,1015.5
2022-10-24T03:13:00+09:00,2.2,�k�k��,5,�k�k��,12.9,83.8,0,0,0,0,0,0,1001.5,1015.4
2022-10-24T03:14:00+09:00,2.2,�k�k��,5,�k�k��,12.9,83.4,0,0,0,0,0,0,1001.5,1015.4
2022-10-24T03:15:00+09:00,2,�k�k��,4.5,�k,13,83.7,0,0,0,0,0,0,1001.5,1015.4
2022-10-24T03:16:00+09:00,2.1,�k�k��,4.5,�k,12.9,83.9,0,0,0,0,0,0,1001.5,1015.4
2022-10-24T03:17:00+09:00,2,�k�k��,4.2,�k��,12.9,83.8,0,0,0,0,0,0,1001.5,1015.4
2022-10-24T03:18:00+09:00,1.9,�k�k��,4.2,�k��,12.8,83.5,0,0,0,0,0,0,1001.5,1015.4
2022-10-24T03:19:00+09:00,1.8,�k,3.7,�k�k��,12.7,83.3,0,0,0,0,0,0,1001.5,1015.5
2022-10-24T03:20:00+09:00,1.9,�k,3.7,�k�k��,12.9,84.2,0,0,0,0,0,0,1001.5,1015.4
2022-10-24T03:21:00+09:00,1.9,�k,3.7,�k�k��,12.8,84.8,0,0,0,0,0,0,1001.5,1015.4
2022-10-24T03:22:00+09:00,2,�k,3.8,�k�k��,12.9,85.5,0,0,0,0,0,0,1001.5,1015.4
2022-10-24T03:23:00+09:00,2,�k,3.8,�k�k��,12.9,86.2,0,0,0,0,0,0,1001.5,1015.4
2022-10-24T03:24:00+09:00,1.9,�k,3.8,�k�k��,12.8,85.5,0,0,0,0,0,0,1001.5,1015.4
2022-10-24T03:25:00+09:00,2,�k,3.8,�k�k��,12.8,85.5,0,0,0,0,0,0,1001.6,1015.5
2022-10-24T03:26:00+09:00,1.8,�k,3.8,�k�k��,12.7,85.2,0,0,0,0,0,0,1001.6,1015.6
2022-10-24T03:27:00+09:00,1.8,�k,3.8,�k�k��,12.8,85.7,0,0,0,0,0,0,1001.6,1015.5
2022-10-24T03:28:00+09:00,1.7,�k,3.8,�k�k��,12.9,86.1,0,0,0,0,0,0,1001.6,1015.5
2022-10-24T03:29:00+09:00,1.7,�k,3.8,�k�k��,12.9,85.7,0,0,0,0,0,0,1001.6,1015.5
2022-10-24T03:30:00+09:00,1.6,�k�k��,3.8,�k�k��,12.7,85.2,0,0,0,0,0,0,1001.6,1015.6
2022-10-24T03:31:00+09:00,1.5,�k�k��,3.8,�k�k��,12.6,85.2,0,0,0,0,0,0,1001.6,1015.6
2022-10-24T03:32:00+09:00,1.3,�k�k��,3.3,�k�k��,12.7,85.3,0,0,0,0,0,0,1001.6,1015.6
2022-10-24T03:33:00+09:00,1.3,�k�k��,3.1,�k��,13,86.1,0,0,0,0,0,0,1001.6,1015.5
2022-10-24T03:34:00+09:00,1.3,�k�k��,3.1,�k��,12.9,86.5,0,0,0,0,0,0,1001.6,1015.5
2022-10-24T03:35:00+09:00,1.2,�k�k��,2.9,�k�k��,12.9,86,0,0,0,0,0,0,1001.6,1015.5
2022-10-24T03:36:00+09:00,1.2,�k�k��,2.9,�k�k��,12.8,86.1,0,0,0,0,0,0,1001.7,1015.6
2022-10-24T03:37:00+09:00,1.3,�k�k��,2.8,�k,12.7,85.8,0,0,0,0,0,0,1001.7,1015.7
2022-10-24T03:38:00+09:00,1.4,�k�k��,2.8,�k,12.6,85.5,0,0,0,0,0,0,1001.7,1015.7
2022-10-24T03:39:00+09:00,1.4,�k�k��,2.8,�k,12.5,85.7,0,0,0,0,0,0,1001.7,1015.7
2022-10-24T03:40:00+09:00,1.5,�k�k��,2.8,�k,12.6,86.1,0,0,0,0,0,0,1001.7,1015.7
2022-10-24T03:41:00+09:00,1.6,�k�k��,3.5,�k��,12.6,86.2,0,0,0,0,0,0,1001.7,1015.7
2022-10-24T03:42:00+09:00,1.7,�k�k��,3.5,�k��,12.5,86.1,0,0,0,0,0,0,1001.7,1015.7
2022-10-24T03:43:00+09:00,1.8,�k��,3.5,�k��,12.7,86.4,0,0,0,0,0,0,1001.7,1015.7
2022-10-24T03:44:00+09:00,1.9,�k��,3.5,�k��,12.7,86.3,0,0,0,0,0,0,1001.6,1015.6
2022-10-24T03:45:00+09:00,2,�k��,3.5,�k��,12.6,85.5,0,0,0,0,0,0,1001.7,1015.7
2022-10-24T03:46:00+09:00,2.1,�k��,3.5,�k��,12.8,85.3,0,0,0,0,0,0,1001.7,1015.6
2022-10-24T03:47:00+09:00,2.1,�k��,3.5,�k��,12.8,84.7,0,0,0,0,0,0,1001.7,1015.6
2022-10-24T03:48:00+09:00,2.1,�k��,3.5,�k��,12.7,83.7,0,0,0,0,0,0,1001.7,1015.7
2022-10-24T03:49:00+09:00,2.2,�k��,3.5,�k��,12.7,83.5,0,0,0,0,0,0,1001.7,1015.7
2022-10-24T03:50:00+09:00,2.1,�k��,3.5,�k��,12.6,83.3,0,0,0,0,0,0,1001.7,1015.7
2022-10-24T03:51:00+09:00,2.1,�k��,3.2,�k,12.6,83.2,0,0,0,0,0,0,1001.7,1015.7
2022-10-24T03:52:00+09:00,2,�k��,3.2,�k,12.5,82.9,0,0,0,0,0,0,1001.7,1015.7
2022-10-24T03:53:00+09:00,2,�k�k��,3.5,�k��,12.6,82.8,0,0,0,0,0,0,1001.7,1015.7
2022-10-24T03:54:00+09:00,1.9,�k�k��,3.5,�k��,12.6,82.7,0,0,0,0,0,0,1001.7,1015.7
2022-10-24T03:55:00+09:00,1.9,�k�k��,3.5,�k��,12.7,82.8,0,0,0,0,0,0,1001.8,1015.8
2022-10-24T03:56:00+09:00,1.9,�k�k��,3.5,�k��,12.7,82.3,0,0,0,0,0,0,1001.8,1015.8
2022-10-24T03:57:00+09:00,1.9,�k�k��,3.5,�k��,12.7,82.2,0,0,0,0,0,0,1001.8,1015.8
2022-10-24T03:58:00+09:00,1.9,�k�k��,3.5,�k��,12.6,81.7,0,0,0,0,0,0,1001.8,1015.8
2022-10-24T03:59:00+09:00,1.9,�k�k��,3.5,�k��,12.5,81.7,0,0,0,0,0,0,1001.8,1015.8
2022-10-24T04:00:00+09:00,1.9,�k�k��,3.6,�k��,12.5,81.9,0,0,0,0,0,0,1001.8,1015.8
2022-10-24T04:01:00+09:00,2,�k�k��,3.6,�k��,12.6,82.3,0,0,0,0,0,0,1001.8,1015.8
2022-10-24T04:02:00+09:00,2.1,�k�k��,3.6,�k��,12.6,82.2,0,0,0,0,0,0,1001.7,1015.7
2022-10-24T04:03:00+09:00,2.2,�k�k��,3.6,�k��,12.6,81.7,0,0,0,0,0,0,1001.7,1015.7
2022-10-24T04:04:00+09:00,2.2,�k�k��,3.7,�k��,12.6,81.3,0,0,0,0,0,0,1001.7,1015.7
2022-10-24T04:05:00+09:00,2.4,�k�k��,4.9,�k��,12.6,81,0,0,0,0,0,0,1001.7,1015.7
2022-10-24T04:06:00+09:00,2.6,�k�k��,4.9,�k��,12.6,80.6,0,0,0,0,0,0,1001.7,1015.7
2022-10-24T04:07:00+09:00,2.7,�k��,4.9,�k��,12.5,80.2,0,0,0,0,0,0,1001.7,1015.7
2022-10-24T04:08:00+09:00,2.8,�k��,4.9,�k��,12.5,80,0,0,0,0,0,0,1001.7,1015.7
2022-10-24T04:09:00+09:00,2.8,�k��,4.9,�k��,12.5,79.8,0,0,0,0,0,0,1001.7,1015.7
2022-10-24T04:10:00+09:00,2.9,�k��,4.9,�k��,12.5,79.9,0,0,0,0,0,0,1001.8,1015.8
2022-10-24T04:11:00+09:00,2.8,�k�k��,4.9,�k��,12.5,80,0,0,0,0,0,0,1001.7,1015.7
2022-10-24T04:12:00+09:00,2.8,�k�k��,4.9,�k��,12.5,80.1,0,0,0,0,0,0,1001.8,1015.8
2022-10-24T04:13:00+09:00,2.9,�k��,4.9,�k��,12.4,80.2,0,0,0,0,0,0,1001.8,1015.8
2022-10-24T04:14:00+09:00,3,�k��,4.9,�k��,12.4,80.2,0,0,0,0,0,0,1001.8,1015.8
2022-10-24T04:15:00+09:00,2.9,�k��,4.9,�k��,12.5,80.4,0,0,0,0,0,0,1001.8,1015.8
2022-10-24T04:16:00+09:00,2.9,�k��,4.9,�k��,12.5,80,0,0,0,0,0,0,1001.8,1015.8
2022-10-24T04:17:00+09:00,2.8,�k��,4.9,�k��,12.5,79.9,0,0,0,0,0,0,1001.8,1015.8
2022-10-24T04:18:00+09:00,2.7,�k��,4.2,�k��,12.5,80,0,0,0,0,0,0,1001.8,1015.8
2022-10-24T04:19:00+09:00,2.7,�k��,4.2,�k��,12.5,80,0,0,0,0,0,0,1001.8,1015.8
2022-10-24T04:20:00+09:00,2.7,�k��,4.2,�k��,12.5,79.9,0,0,0,0,0,0,1001.8,1015.8
2022-10-24T04:21:00+09:00,2.8,�k��,4.2,�k��,12.4,79.8,0,0,0,0,0,0,1001.8,1015.8
2022-10-24T04:22:00+09:00,2.8,�k��,4.2,�k��,12.4,79.7,0,0,0,0,0,0,1001.8,1015.8
2022-10-24T04:23:00+09:00,2.7,�k��,4.1,�k��,12.4,79.7,0,0,0,0,0,0,1001.9,1015.9
2022-10-24T04:24:00+09:00,2.8,�k��,4.5,�k��,12.4,79.7,0,0,0,0,0,0,1001.9,1015.9
2022-10-24T04:25:00+09:00,2.8,�k��,4.5,�k��,12.4,79.6,0,0,0,0,0,0,1001.9,1015.9
2022-10-24T04:26:00+09:00,2.8,�k��,4.5,�k��,12.4,79.4,0,0,0,0,0,0,1001.9,1015.9
2022-10-24T04:27:00+09:00,2.9,�k��,4.9,�k��,12.4,79.4,0,0,0,0,0,0,1001.9,1015.9
2022-10-24T04:28:00+09:00,2.9,�k��,4.9,�k��,12.4,79.5,0,0,0,0,0,0,1001.9,1015.9
2022-10-24T04:29:00+09:00,2.9,�k��,4.9,�k��,12.3,79.6,0,0,0,0,0,0,1001.9,1015.9
2022-10-24T04:30:00+09:00,2.8,�k��,4.9,�k��,12.3,79.6,0,0,0,0,0,0,1002,1016
2022-10-24T04:31:00+09:00,2.8,�k�k��,4.9,�k��,12.5,80.2,0,0,0,0,0,0,1001.9,1015.9
2022-10-24T04:32:00+09:00,2.8,�k��,4.9,�k��,12.4,80.2,0,0,0,0,0,0,1002,1016
2022-10-24T04:33:00+09:00,2.8,�k��,4.9,�k��,12.5,79.9,0,0,0,0,0,0,1002,1016
2022-10-24T04:34:00+09:00,2.7,�k��,4.9,�k��,12.4,79.6,0,0,0,0,0,0,1002,1016
2022-10-24T04:35:00+09:00,2.7,�k��,4.9,�k��,12.4,79.7,0,0,0,0,0,0,1002,1016
2022-10-24T04:36:00+09:00,2.6,�k��,4.9,�k��,12.4,79.8,0,0,0,0,0,0,1002,1016
2022-10-24T04:37:00+09:00,2.5,�k��,4.7,�k��,12.4,79.9,0,0,0,0,0,0,1002,1016
2022-10-24T04:38:00+09:00,2.4,�k��,4.5,�k��,12.4,80.1,0,0,0,0,0,0,1002,1016
2022-10-24T04:39:00+09:00,2.3,�k��,3.6,�k��,12.4,80.1,0,0,0,0,0,0,1002,1016
2022-10-24T04:40:00+09:00,2.3,�k��,3.6,�k��,12.4,80.2,0,0,0,0,0,0,1002,1016
2022-10-24T04:41:00+09:00,2.3,�k��,3.6,�k��,12.3,80.1,0,0,0,0,0,0,1002,1016
2022-10-24T04:42:00+09:00,2.3,�k��,3.8,�k�k��,12.3,80.4,0,0,0,0,0,0,1002,1016
2022-10-24T04:43:00+09:00,2.3,�k��,3.8,�k�k��,12.4,80.5,0,0,0,0,0,0,1002,1016
2022-10-24T04:44:00+09:00,2.3,�k��,3.8,�k�k��,12.4,80.4,0,0,0,0,0,0,1002,1016
2022-10-24T04:45:00+09:00,2.4,�k��,4.3,�k��,12.3,80.1,0,0,0,0,0,0,1002,1016
2022-10-24T04:46:00+09:00,2.5,�k��,4.3,�k��,12.3,80.2,0,0,0,0,0,0,1002,1016
2022-10-24T04:47:00+09:00,2.5,�k��,4.3,�k��,12.3,79.9,0,0,0,0,0,0,1002,1016
2022-10-24T04:48:00+09:00,2.5,�k��,4.3,�k��,12.3,79.8,0,0,0,0,0,0,1002,1016
2022-10-24T04:49:00+09:00,2.5,�k�k��,4.3,�k��,12.3,79.9,0,0,0,0,0,0,1002,1016
2022-10-24T04:50:00+09:00,2.5,�k�k��,4.3,�k��,12.3,80.1,0,0,0,0,0,0,1002,1016
2022-10-24T04:51:00+09:00,2.5,�k�k��,4.3,�k��,12.3,80.1,0,0,0,0,0,0,1002,1016
2022-10-24T04:52:00+09:00,2.5,�k�k��,4.3,�k��,12.3,79.9,0,0,0,0,0,0,1002,1016
2022-10-24T04:53:00+09:00,2.4,�k�k��,4.3,�k��,12.3,79.6,0,0,0,0,0,0,1002,1016
2022-10-24T04:54:00+09:00,2.3,�k�k��,4.3,�k��,12.4,79.7,0,0,0,0,0,0,1002,1016
2022-10-24T04:55:00+09:00,2.2,�k�k��,4.1,�k��,12.5,80.1,0,0,0,0,0,0,1002,1016
2022-10-24T04:56:00+09:00,2,�k�k��,4,�k��,12.6,79.9,0,0,0,0,0,0,1002,1016
2022-10-24T04:57:00+09:00,1.9,�k�k��,3.7,�k��,12.5,79.4,0,0,0,0,0,0,1002,1016
2022-10-24T04:58:00+09:00,1.9,�k�k��,4.2,�k,12.4,79,0,0,0,0,0,0,1002.1,1016.1
2022-10-24T04:59:00+09:00,1.8,�k,4.2,�k,12.4,78.8,0,0,0,0,0,0,1002.1,1016.1
2022-10-24T05:00:00+09:00,1.8,�k,4.2,�k,12.4,78.7,0,0,0,0,0,0,1002.1,1016.1